This is the latest recevied weather packets stored in our database for station/object KA6UPU-1. If no packets are shown the sender has not sent any weather packets the latest 10 day(s).
| Time | Temp. | Humidity | Pressure | Rain* | Wind** | Luminosity | Snow |
|---|---|---|---|---|---|---|---|
| 1777918905 | 18.89° C | 55% | 1014.8 hPa | 0 mm | - | - | - |
| 1777918304 | 18.33° C | 59% | 1014.8 hPa | 0 mm | - | - | - |
| 1777917704 | 18.33° C | 56% | 1014.9 hPa | 0 mm | - | - | - |
| 1777917404 | 18.33° C | 58% | 1014.8 hPa | 0 mm | - | - | - |
| 1777917104 | 17.78° C | 59% | 1014.8 hPa | 0 mm | - | - | - |
| 1777916804 | 17.78° C | 59% | 1014.8 hPa | 0 mm | - | - | - |
| 1777916504 | 17.78° C | 60% | 1014.8 hPa | 0 mm | - | - | - |
| 1777916204 | 17.78° C | 60% | 1014.6 hPa | 0 mm | - | - | - |
| 1777915604 | 16.67° C | 63% | 1014.6 hPa | 0 mm | - | - | - |
| 1777915304 | 16.67° C | 65% | 1014.8 hPa | 0 mm | - | - | - |
| 1777915004 | 16.67° C | 63% | 1014.7 hPa | 0 mm | - | - | - |
| 1777914704 | 16.67° C | 62% | 1014.6 hPa | 0 mm | - | - | - |
| 1777914404 | 17.22° C | 63% | 1014.8 hPa | 0 mm | - | - | - |
| 1777914104 | 17.22° C | 62% | 1014.6 hPa | 0 mm | - | - | - |
| 1777913804 | 17.22° C | 62% | 1014.6 hPa | 0 mm | - | - | - |
| 1777913504 | 17.22° C | 62% | 1014.5 hPa | 0 mm | - | - | - |
| 1777913204 | 17.22° C | 63% | 1014.4 hPa | 0 mm | - | - | - |
| 1777912904 | 17.22° C | 64% | 1014.3 hPa | 0 mm | - | - | - |
| 1777912604 | 17.22° C | 63% | 1014.1 hPa | 0 mm | - | - | - |
| 1777912304 | 17.22° C | 64% | 1014.1 hPa | 0 mm | - | - | - |
| 1777912004 | 17.22° C | 64% | 1014.1 hPa | 0 mm | - | - | - |
| 1777911704 | 17.22° C | 64% | 1014.2 hPa | 0 mm | - | - | - |
| 1777911404 | 16.67° C | 68% | 1014.2 hPa | 0 mm | - | - | - |
| 1777911104 | 16.67° C | 70% | 1014.2 hPa | 0 mm | - | - | - |
| 1777910804 | 16.11° C | 69% | 1014.2 hPa | 0 mm | - | - | - |
* Rain latest hour (hover to see other rain measurements)
** Current wind speed in m/s (hover to see current wind gust speed)